This is the latest recevied weather packets stored in our database for station/object FW0690. If no packets are shown the sender has not sent any weather packets the latest 10 day(s).
| Time | Temp. | Humidity | Pressure | Rain* | Wind** | Luminosity | Snow |
|---|---|---|---|---|---|---|---|
| 1778137723 | 18.89° C | 42% | 1014.6 hPa | - | - | 25 W/m² | - |
| 1778137363 | 18.89° C | 43% | 1014.6 hPa | - | - | 23 W/m² | - |
| 1778137003 | 18.33° C | 44% | 1014.5 hPa | - | - | 24 W/m² | - |
| 1778136643 | 18.33° C | 45% | 1014.5 hPa | - | - | 25 W/m² | - |
| 1778136283 | 17.78° C | 46% | 1014.5 hPa | - | - | 24 W/m² | - |
| 1778135923 | 17.78° C | 47% | 1014.5 hPa | - | - | 25 W/m² | - |
| 1778135563 | 17.22° C | 47% | 1014.6 hPa | - | - | 25 W/m² | - |
| 1778135203 | 16.67° C | 48% | 1014.5 hPa | - | - | 22 W/m² | - |
| 1778134843 | 16.67° C | 49% | 1014.6 hPa | - | - | 19 W/m² | - |
| 1778134483 | 16.11° C | 49% | 1014.5 hPa | - | - | 24 W/m² | - |
| 1778134123 | 16.11° C | 50% | 1014.4 hPa | - | - | 25 W/m² | - |
| 1778133763 | 15.56° C | 51% | 1014.4 hPa | - | - | 23 W/m² | - |
| 1778133403 | 15.56° C | 52% | 1014.5 hPa | - | - | 23 W/m² | - |
| 1778133043 | 15.56° C | 52% | 1014.6 hPa | - | - | 22 W/m² | - |
| 1778132683 | 15° C | 52% | 1014.6 hPa | - | - | 16 W/m² | - |
| 1778132323 | 15° C | 53% | 1014.5 hPa | - | - | 20 W/m² | - |
| 1778131963 | 14.44° C | 53% | 1014.5 hPa | - | - | 19 W/m² | - |
| 1778131603 | 14.44° C | 53% | 1014.5 hPa | - | - | 17 W/m² | - |
| 1778131243 | 14.44° C | 54% | 1014.5 hPa | - | - | 17 W/m² | - |
| 1778130882 | 14.44° C | 55% | 1014.5 hPa | - | - | 23 W/m² | - |
| 1778130523 | 13.89° C | 56% | 1014.5 hPa | - | - | 23 W/m² | - |
| 1778130163 | 13.33° C | 57% | 1014.5 hPa | - | - | 22 W/m² | - |
| 1778129803 | 13.33° C | 57% | 1014.6 hPa | - | - | 21 W/m² | - |
| 1778129442 | 12.78° C | 58% | 1014.5 hPa | - | - | 20 W/m² | - |
| 1778129083 | 12.78° C | 58% | 1014.6 hPa | - | - | 19 W/m² | - |
* Rain since midnight (hover to see other rain measurements)
** Current wind speed in m/s (hover to see current wind gust speed)